TimeEST,TemperatureF,Dew PointF,Humidity,Sea Level PressureIn,VisibilityMPH,Wind Direction,Wind SpeedMPH,Gust SpeedMPH,PrecipitationIn,Events,Conditions,WindDirDegrees,DateUTC
12:15 AM,63.5,62.1,95,30.10,10.0,SW,3.5,-,0.01,Rain,Light Rain,220,2013-11-23 05:15:00
12:35 AM,63.5,62.1,95,30.09,10.0,SSW,4.6,-,0.01,Rain,Rain,210,2013-11-23 05:35:00
12:55 AM,63.5,62.2,96,30.09,10.0,SSW,4.6,-,0.01,,Scattered Clouds,210,2013-11-23 05:55:00
1:15 AM,63.5,62.2,96,30.08,10.0,SSW,4.6,-,N/A,Rain,Light Rain,210,2013-11-23 06:15:00
1:35 AM,63.5,62.2,96,30.08,10.0,WSW,4.6,-,N/A,,Mostly Cloudy,240,2013-11-23 06:35:00
1:55 AM,63.7,62.6,96,30.08,10.0,WSW,3.5,-,N/A,,Overcast,240,2013-11-23 06:55:00
2:15 AM,63.7,62.6,96,30.08,10.0,SW,3.5,-,N/A,,Overcast,230,2013-11-23 07:15:00
2:35 AM,63.7,62.6,96,30.07,10.0,SW,4.6,-,N/A,,Overcast,230,2013-11-23 07:35:00
2:55 AM,63.7,62.6,96,30.07,10.0,SW,5.8,-,N/A,,Overcast,230,2013-11-23 07:55:00
3:15 AM,63.7,62.6,96,30.07,7.0,SW,5.8,-,N/A,,Mostly Cloudy,230,2013-11-23 08:15:00
3:35 AM,63.7,62.6,96,30.06,7.0,SW,5.8,-,N/A,Rain,Rain,230,2013-11-23 08:35:00
3:55 AM,63.7,62.6,96,30.06,7.0,SW,5.8,-,N/A,Rain,Rain,230,2013-11-23 08:55:00
4:15 AM,63.7,62.6,96,30.06,4.0,WSW,4.6,-,0.01,Rain,Rain,250,2013-11-23 09:15:00
4:35 AM,63.5,62.6,97,30.07,3.0,West,4.6,-,0.01,,Heavy Drizzle,260,2013-11-23 09:35:00
4:55 AM,63.5,62.6,97,30.07,7.0,West,3.5,-,0.01,Rain,Rain,260,2013-11-23 09:55:00
5:15 AM,63.0,62.1,97,30.06,7.0,Calm,Calm,-,N/A,,Mostly Cloudy,0,2013-11-23 10:15:00
5:35 AM,62.8,61.9,97,30.06,7.0,Calm,Calm,-,N/A,,Mostly Cloudy,0,2013-11-23 10:35:00
5:55 AM,62.8,62.1,97,30.07,7.0,West,3.5,-,N/A,,Mostly Cloudy,270,2013-11-23 10:55:00
6:56 AM,62.6,60.8,94,30.07,5.0,West,3.5,-,N/A,,Clear,280,2013-11-23 11:56:00
7:56 AM,60.8,60.8,100,30.09,10.0,WNW,3.5,-,N/A,,Scattered Clouds,300,2013-11-23 12:56:00
8:56 AM,62.6,57.2,82,30.09,10.0,NNW,9.2,-,N/A,,Mostly Cloudy,330,2013-11-23 13:56:00
9:56 AM,60.8,55.4,82,30.10,10.0,NNW,6.9,-,N/A,,Overcast,340,2013-11-23 14:56:00
10:56 AM,60.8,57.2,88,30.09,7.0,NNW,8.1,-,N/A,,Light Drizzle,340,2013-11-23 15:56:00
11:56 AM,57.2,55.4,94,30.08,3.0,NNE,9.2,-,N/A,,Drizzle,20,2013-11-23 16:56:00
12:56 PM,57.2,55.4,94,30.06,7.0,NE,5.8,-,N/A,,Overcast,40,2013-11-23 17:56:00
1:56 PM,59.0,51.8,77,30.03,10.0,NNE,8.1,-,N/A,,Scattered Clouds,30,2013-11-23 18:56:00
2:56 PM,57.2,48.2,72,30.04,10.0,North,6.9,-,N/A,,Overcast,10,2013-11-23 19:56:00
3:56 PM,57.2,48.2,72,30.05,10.0,North,4.6,-,N/A,,Unknown,360,2013-11-23 20:56:00
4:56 PM,55.4,48.2,77,30.05,10.0,NNE,3.5,-,N/A,,Overcast,30,2013-11-23 21:56:00
5:56 PM,53.6,50.0,88,30.06,10.0,Calm,Calm,-,N/A,,Mostly Cloudy,0,2013-11-23 22:56:00
6:56 PM,51.8,51.8,100,30.07,7.0,Calm,Calm,-,N/A,,Scattered Clouds,0,2013-11-23 23:56:00
8:15 PM,52.9,49.5,88,30.08,10.0,NW,10.4,-,N/A,,Clear,320,2013-11-24 01:15:00
8:35 PM,54.0,35.6,50,30.08,10.0,NNW,10.4,-,N/A,,Scattered Clouds,330,2013-11-24 01:35:00
8:55 PM,53.4,32.2,44,30.09,10.0,NNW,6.9,-,N/A,,Scattered Clouds,340,2013-11-24 01:55:00
9:15 PM,52.2,31.1,45,30.09,10.0,NNW,5.8,-,N/A,,Clear,330,2013-11-24 02:15:00
9:35 PM,51.4,30.6,45,30.10,10.0,NNW,6.9,-,N/A,,Clear,340,2013-11-24 02:35:00
9:55 PM,50.9,30.2,45,30.09,10.0,NNW,10.4,-,N/A,,Clear,330,2013-11-24 02:55:00
10:15 PM,49.6,30.2,47,30.10,10.0,NNW,8.1,-,N/A,,Clear,330,2013-11-24 03:15:00
10:35 PM,48.7,29.7,48,30.11,10.0,NNW,8.1,-,N/A,,Clear,330,2013-11-24 03:35:00
10:55 PM,48.6,26.6,42,30.12,10.0,NNW,9.2,-,N/A,,Clear,330,2013-11-24 03:55:00
11:15 PM,47.8,25.9,42,30.13,10.0,NNW,9.2,-,N/A,,Clear,330,2013-11-24 04:15:00
11:35 PM,46.8,24.4,42,30.13,10.0,NNW,9.2,-,N/A,,Clear,330,2013-11-24 04:35:00
11:55 PM,45.5,25.0,45,30.14,10.0,NNW,5.8,-,N/A,,Clear,330,2013-11-24 04:55:00